Meteopurmerend
purmerend
Purmerend - Baaienwijk



My webcam  My webcam


waarschuwing voor Onweer Meer informatie blitzortung!


Regen radar Meer informatie rain snow radar


Bezoek onze andere website:

CandyAppleRed WebdesignWebdesign Purmerend Candy Apple Red

MeteopurmerendBlog

Template documentation
and downloads



Onweer van: 19-06-2019 18:00 tot: 23:00 waarschuwing voor: Onweer niveau: Geel info button
Enkele onweersbuien, mogelijk met hagel en windstoten tot ca. 75 km/uur.Verkeer en buitenactiviteiten kunnen hinder ondervinden.Mijd open water en open gebied, schuil niet onder bomen.Volg weerberichten en waarschuwingen.

15 daagse weersverwachting Toulouse (FR)

  • Overzicht
  • Per uur
  • 15 dagen
  • Extra
  • Vergelijk
  • Kaarten
  • Dagkaart
  • Meer »
  • Info
  • Statistieken
  • Directe link
    Temp 6h Neerslag Wind  
 06:14     21:38    Daglengte: 15:24 Vandaag
20:00
27°
 
4
 06:14     21:38    Daglengte: 15:24 Morgen
02:00
19°
3.8 mm
3
warningclass
08:00
17°
14.1 mm
3
14:00
20°
 
2
20:00
20°
7.2 mm
3
 06:14     21:39    Daglengte: 15:25 Vrijdag 21 Jun
02:00
17°
5.7 mm
2
08:00
16°
3.6 mm
2
14:00
19°
37.4 mm
4
20:00
19°
35.3 mm
4
 06:14     21:39    Daglengte: 15:25 Zaterdag 22 Jun
02:00
16°
 
4
08:00
14°
 
2
14:00
23°
 
2
Locatie info
Region: Occitanie
Latitude: 43.6057°N
Longitude: 1.4487°E
150 masl
Postcode: 31000
Temp/Neerslag /Baro Onweer/Dauwpunt
    Temp Baro 1h Neerslag Dauwpunt Wind UV Bewolking  
 06:14     21:38    Daglengte: 15:24 Vandaag
20:00
27°
1011.8 hPa
26%
13.7°
4
Windvlaag: -2.8 m/s
35%
21:00
25°
1012.4 hPa
16%
14.5°
4
Windvlaag: -2.5 m/s
54%
22:00
23°
1013.1 hPa
70%
14.2°
4
Windvlaag: -1.3 m/s
69%
23:00
22°
1014.3 hPa
80%
15.1°
4
Windvlaag: -1.1 m/s
75%
 06:14     21:38    Daglengte: 15:24 Morgen
00:00
20°
1014.6 hPa 0.5 mm
82%
16.4°
3
Windvlaag: -0.8 m/s
86%
01:00
20°
1015.0 hPa 1.6 mm
82%
17.1°
3
Windvlaag: 0.8 m/s
64%
02:00
19°
1015.2 hPa 1.8 mm
82%
17.1°
3
Windvlaag: -0 m/s
77% warningclass
03:00
19°
1015.4 hPa 2.4 mm
82%
16.6°
4
Windvlaag: -0.9 m/s
84% warningclass
04:00
18°
1015.4 hPa 3.2 mm
82%
15.9°
4
Windvlaag: -0.6 m/s
59%
05:00
17°
1015.4 hPa 3.3 mm
82%
15.3°
4
Windvlaag: -0.5 m/s
55%
06:00
17°
1015.7 hPa 2.4 mm
82%
15.1°
3
Windvlaag: -0.5 m/s
57%
07:00
17°
1016.1 hPa 2.7 mm
81%
14.9°
3
Windvlaag: -0.5 m/s
51%
08:00
17°
1016.4 hPa
76%
14.6°
3
Windvlaag: -0.6 m/s
65%
09:00
17°
1016.5 hPa
24%
14.5°
3
Windvlaag: -0.5 m/s
78%
10:00
17°
1016.7 hPa
14%
14.0°
3
Windvlaag: -0.6 m/s
88%
11:00
18°
1016.6 hPa
16%
13.6°
2
Windvlaag: -0.6 m/s
79%
12:00
18°
1016.6 hPa
14%
13.5°
2
Windvlaag: -0.7 m/s
85%
13:00
19°
1016.5 hPa
16%
13.5°
2
Windvlaag: -0.8 m/s
85%
14:00
20°
1016.2 hPa
22%
13.5°
2
Windvlaag: -1.1 m/s
78%
15:00
21°
1015.7 hPa
31%
13.6°
2
Windvlaag: -1.5 m/s
85%
16:00
22°
1015.3 hPa
81%
13.7°
2
Windvlaag: -1.5 m/s
78%
17:00
22°
1015.0 hPa
81%
13.5°
3
Windvlaag: -1.4 m/s
70%
18:00
22°
1015.0 hPa
80%
13.6°
3
Windvlaag: -0.9 m/s
88%
19:00
21°
1015.2 hPa 3.6 mm
67%
14.8°
3
Windvlaag: 0.5 m/s
87%
20:00
20°
1015.2 hPa 3.5 mm
75%
15.6°
3
Windvlaag: 1.3 m/s
87%
21:00
20°
1015.6 hPa 3.3 mm
78%
15.9°
3
Windvlaag: 0.9 m/s
87%
22:00
19°
1016.0 hPa 2.4 mm
82%
16.1°
2
Windvlaag: 0.6 m/s
82%
23:00
19°
1016.5 hPa
79%
16.0°
2
Windvlaag: 0.6 m/s
63%
 06:14     21:39    Daglengte: 15:25 Vrijdag 21 Jun
00:00
18°
1016.8 hPa
14%
15.9°
2
Windvlaag: 1.5 m/s
32%
01:00
17°
1016.7 hPa
14%
15.9°
2
Windvlaag: 1.4 m/s
27%
02:00
17°
1016.6 hPa
14%
15.7°
2
Windvlaag: 1.1 m/s
47%
03:00
17°
1016.3 hPa
14%
15.7°
2
Windvlaag: 1 m/s
84%
04:00
17°
1015.9 hPa
14%
15.6°
2
Windvlaag: 0.4 m/s
60%
05:00
16°
1015.8 hPa
14%
15.1°
2
Windvlaag: 0.3 m/s
72%
06:00
16°
1015.9 hPa
26%
14.7°
2
Windvlaag: 0.1 m/s
74%
07:00
16°
1016.1 hPa
80%
14.7°
2
Windvlaag: 0.4 m/s
84%
08:00
16°
1016.4 hPa 3.6 mm
82%
14.4°
2
Windvlaag: 0.9 m/s
88%
09:00
16°
1016.8 hPa
82%
14.3°
2
Windvlaag: 0.6 m/s
88%
10:00
16°
1017.1 hPa 7.4 mm
82%
14.0°
3
Windvlaag: 0.4 m/s
90%
11:00
16°
1017.1 hPa 6.7 mm
82%
13.7°
3
Windvlaag: -0.2 m/s
89%
12:00
17°
1017.2 hPa 6.1 mm
81%
13.6°
4
Windvlaag: -0.3 m/s
77%
13:00
18°
1017.0 hPa 8.6 mm
76%
13.8°
3
Windvlaag: -0.3 m/s
82%
14:00
19°
1017.0 hPa 8.6 mm
77%
13.7°
4
Windvlaag: -0.1 m/s
87%
15:00
18°
1016.9 hPa 8.8 mm
22%
13.9°
4
Windvlaag: 0.3 m/s
86%
16:00
19°
1016.8 hPa 8.8 mm
22%
14.4°
5
Windvlaag: 0.6 m/s
76%
17:00
18°
1016.8 hPa 8.9 mm
72%
13.6°
4
Windvlaag: 0.8 m/s
70%
18:00
19°
1016.8 hPa
31%
12.6°
4
Windvlaag: 1.1 m/s
86%
19:00
19°
1017.1 hPa 8.8 mm
26%
13.9°
4
Windvlaag: 1 m/s
95%
20:00
19°
1017.1 hPa
24%
14.5°
4
Windvlaag: 1.4 m/s
93%
21:00
19°
1017.5 hPa
25%
14.0°
4
Windvlaag: 1.3 m/s
94%
22:00
17°
1018.1 hPa
24%
13.7°
4
Windvlaag: 1.6 m/s
96%
23:00
17°
1018.9 hPa
21%
13.7°
4
Windvlaag: 1.6 m/s
89%
 06:14     21:39    Daglengte: 15:25 Zaterdag 22 Jun
00:00
16°
1019.1 hPa
21%
13.8°
4
Windvlaag: 1.4 m/s
83%
01:00
16°
1019.2 hPa
21%
13.8°
4
Windvlaag: 1 m/s
83%
02:00
16°
1019.0 hPa
21%
13.7°
4
Windvlaag: 1 m/s
79%
03:00
15°
1018.9 hPa
21%
13.3°
4
Windvlaag: 0.9 m/s
77%
04:00
15°
1018.5 hPa
21%
13.0°
3
Windvlaag: 0.4 m/s
76%
05:00
14°
1018.4 hPa
21%
12.8°
3
Windvlaag: 0.3 m/s
78%
06:00
14°
1018.5 hPa
21%
12.7°
3
Windvlaag: 0.1 m/s
79%
07:00
14°
1018.8 hPa
22%
12.6°
2
Windvlaag: 0.2 m/s
87%
08:00
14°
1019.0 hPa
21%
12.5°
2
Windvlaag: 0.2 m/s
87%
09:00
15°
1018.8 hPa
23%
12.8°
2
Windvlaag: 0.4 m/s
84%
10:00
17°
1018.6 hPa
21%
13.1°
2
Windvlaag: 1 m/s
82%
11:00
18°
1018.3 hPa
21%
13.2°
2
Windvlaag: -1.6 m/s
73%
12:00
20°
1018.0 hPa
21%
13.1°
2
Windvlaag: -3.7 m/s
48%
13:00
21°
1017.7 hPa
21%
12.7°
2
Windvlaag: -3.8 m/s
56%
14:00
23°
1017.4 hPa
21%
12.0°
2
Windvlaag: -1.9 m/s
54%
15:00
24°
1016.9 hPa
21%
12.3°
2
Windvlaag: 2.4 m/s
37%
16:00
24°
1016.4 hPa
21%
12.5°
2
Windvlaag: 2.4 m/s
48%
17:00
24°
1015.8 hPa
21%
12.6°
2
Windvlaag: 2.6 m/s
41%
18:00
25°
1015.5 hPa
21%
12.5°
1
Windvlaag: 2.5 m/s
47%
19:00
25°
1015.2 hPa
21%
12.3°
1
Windvlaag: 2.5 m/s
24%
Temp/Neerslag /Baro Onweer/Dauwpunt
    Temp Baro Neerslag Dauwpunt Wind Bewolking  
 06:14     21:38    Daglengte: 15:24 Vandaag
20:00
27°
1011.8 hPa   13.7°
4
35%
23:00
22°
1014.3 hPa   15.1°
4
75%
 06:14     21:38    Daglengte: 15:24 Morgen
02:00
19°
1015.2 hPa 3.8 mm 17.1°
3
77% warningclass
05:00
17°
1015.4 hPa 8.9 mm 15.3°
4
55%
08:00
17°
1016.4 hPa 5.2 mm 14.6°
3
65%
11:00
18°
1016.6 hPa   13.6°
2
79%
14:00
20°
1016.2 hPa   13.5°
2
78%
17:00
22°
1015.0 hPa   13.5°
3
70%
20:00
20°
1015.2 hPa 7.2 mm 15.6°
3
87%
23:00
19°
1016.5 hPa 5.7 mm 16.0°
2
63%
 06:14     21:39    Daglengte: 15:25 Vrijdag 21 Jun
02:00
17°
1016.6 hPa   15.7°
2
47%
05:00
16°
1015.8 hPa   15.1°
2
72%
08:00
16°
1016.4 hPa 3.6 mm 14.4°
2
88%
11:00
16°
1017.1 hPa 14.0 mm 13.7°
3
89%
14:00
19°
1017.0 hPa 23.4 mm 13.7°
4
87%
17:00
18°
1016.8 hPa 26.5 mm 13.6°
4
70%
20:00
19°
1017.1 hPa 8.8 mm 14.5°
4
93%
23:00
17°
1018.9 hPa   13.7°
4
89%
 06:14     21:39    Daglengte: 15:25 Zaterdag 22 Jun
02:00
16°
1019.0 hPa   13.7°
4
79%
05:00
14°
1018.4 hPa   12.8°
3
78%
08:00
14°
1019.0 hPa   12.5°
2
87%
11:00
18°
1018.3 hPa   13.2°
2
73%
14:00
23°
1017.4 hPa   12.0°
2
54%
17:00
24°
1015.8 hPa   12.6°
2
41%
20:00
25°
1015.1 hPa   12.2°
1
5%
23:00
19°
1015.2 hPa 16.9 mm 13.3°
2
59%
 06:15     21:39    Daglengte: 15:24 Zondag 23 Jun
02:00
17°
1015.1 hPa 16.9 mm 12.9°
2
89%
05:00
17°
1014.5 hPa 16.9 mm 12.7°
2
67%
08:00
18°
1014.0 hPa 16.9 mm 12.6°
2
44%
11:00
25°
1013.6 hPa 16.9 mm 14.6°
3
67%
14:00
31°
Voelt als: 30.4°
1013.1 hPa 16.9 mm 14.7°
4
90%
17:00
30°
Voelt als: 29.7°
1012.4 hPa 16.9 mm 14.7°
4
50%
20:00
29°
Voelt als: 28.6°
1011.9 hPa 16.9 mm 14.8°
5
9%
23:00
25°
1012.6 hPa 16.9 mm 14.1°
4
5%
 06:15     21:39    Daglengte: 15:24 Maandag 24 Jun
02:00
21°
1013.2 hPa 16.9 mm 13.2°
4
0%
05:00
21°
1013.5 hPa 16.9 mm 13.1°
4
10%
08:00
21°
1013.9 hPa 16.9 mm 12.8°
5
21%
11:00
26°
1014.2 hPa 16.9 mm 13.7°
6
19%
14:00
31°
Voelt als: 30.2°
1014.4 hPa 16.9 mm 13.5°
6
17%
17:00
30°
Voelt als: 29.3°
1014.3 hPa 16.9 mm 13.1°
5
54%
20:00
29°
Voelt als: 28.1°
1014.2 hPa 16.9 mm 12.7°
5
92%
23:00
24°
1014.9 hPa 16.9 mm 12.8°
4
46%
 06:15     21:39    Daglengte: 15:24 Dinsdag 25 Jun
02:00
20°
1015.5 hPa 16.9 mm 12.3°
3
0%
05:00
20°
1015.5 hPa 16.9 mm 12.7°
4
46%
08:00
22°
1015.6 hPa 16.9 mm 13.0°
6
92%
11:00
27°
1015.6 hPa 16.9 mm 14.4°
6
92%
14:00
32°
Voelt als: 31.8°
1015.6 hPa 16.9 mm 14.5°
5
92%
17:00
32°
Voelt als: 30.9°
1015.0 hPa 16.9 mm 14.0°
5
85%
20:00
30°
Voelt als: 29.7°
1014.6 hPa 16.9 mm 13.7°
4
77%
23:00
27°
1015.0 hPa 16.9 mm 12.6°
5
39%
 06:16     21:39    Daglengte: 15:23 Woensdag 26 Jun
02:00
23°
1015.3 hPa 16.9 mm 11.5°
6
0%
05:00
23°
1015.1 hPa 16.9 mm 12.7°
6
2%
08:00
23°
1015.1 hPa 16.9 mm 14.0°
7
4%
11:00
29°
Voelt als: 28.5°
1015.2 hPa 16.9 mm 14.6°
7
2%
14:00
34°
Voelt als: 33.4°
1015.2 hPa 16.9 mm 13.4°
7
0%
17:00
33°
Voelt als: 32.1°
1014.2 hPa   13.5°
8
0%
20:00
31°
Voelt als: 30.3°
1013.4 hPa 33.7 mm 13.7°
8
0%
 06:16     21:39    Daglengte: 15:23 Donderdag 27 Jun
02:00
24°
1015.6 hPa 33.7 mm 14.1°
5
0%
08:00
24°
1016.2 hPa 33.8 mm 14.8°
4
0%
14:00
35°
Voelt als: 34.2°
1015.9 hPa 33.9 mm 14.8°
5
0%
20:00
32°
Voelt als: 31.9°
1014.3 hPa 33.9 mm 15.1°
5
0%
 06:16     21:39    Daglengte: 15:23 Vrijdag 28 Jun
02:00
23°
1016.2 hPa 34.0 mm 14.2°
3
0%
08:00
21°
1016.3 hPa 34.0 mm 17.5°
2
1%
14:00
34°
Voelt als: 34.3°
1013.4 hPa 34.0 mm 15.5°
4
0%
20:00
33°
Voelt als: 32.4°
1011.1 hPa 34.0 mm 14.7°
5
6%
 06:17     21:39    Daglengte: 15:22 Zaterdag 29 Jun
02:00
23°
1011.5 hPa 34.0 mm 15.6°
5
0%
08:00
20°
1014.9 hPa 34.0 mm 17.2°
1
0%
14:00
32°
Voelt als: 31.9°
1013.0 hPa   15.9°
2
15%
20:00
32°
1012.1 hPa   16.7°
2
9%
 06:17     21:39    Daglengte: 15:22 Zondag 30 Jun
02:00
21°
1014.5 hPa 0.2 mm 16.0°
1
11%
08:00
21°
1015.2 hPa 0.2 mm 15.8°
1
23%
14:00
30°
1014.2 hPa 0.1 mm 16.2°
3
17%
20:00
29°
1014.1 hPa 0.4 mm 17.3°
4
18%
 06:18     21:39    Daglengte: 15:21 Maandag 01 Jul
02:00
19°
1016.9 hPa 1.7 mm 16.2°
3
23%
08:00
18°
1017.2 hPa 0.6 mm 15.3°
2
29%
14:00
27°
1015.6 hPa 0.1 mm 15.1°
3
25%
20:00
27°
1015.1 hPa   15.6°
4
20%
 06:18     21:39    Daglengte: 15:21 Dinsdag 02 Jul
02:00
18°
1017.0 hPa 0.2 mm 14.9°
2
23%
08:00
18°
1016.6 hPa 0.3 mm 14.2°
1
25%
14:00
28°
Voelt als: 27.7°
1014.7 hPa 0.1 mm 14.4°
3
22%
20:00
27°
1013.9 hPa 0.4 mm 15.3°
3
30%
 06:19     21:39    Daglengte: 15:20 Woensdag 03 Jul
02:00
17°
1015.9 hPa 0.6 mm 14.5°
2
28%
08:00
18°
1016.0 hPa 0.7 mm 14.1°
2
34%
14:00
26°
1014.9 hPa 0.3 mm 14.8°
3
31%
20:00
26°
1014.6 hPa 0.2 mm 15.3°
3
34%
 06:20     21:38    Daglengte: 15:18 Donderdag 04 Jul
02:00
17°
1016.7 hPa 0.7 mm 14.3°
2
28%
08:00
18°
1016.9 hPa 0.4 mm 14.0°
1
33%
14:00
27°
1015.9 hPa 0.4 mm 14.4°
2
31%
  CAPE Lifted Index Hail Supercell Tornado SRH 3km CL BTM PRES CL TOP PRES Swiss DWD icon SMHI TS
 06:14     21:38    Daglengte: 15:24 Vandaag
20:00 610 J/kg -2.2 K 0 % 0 % 0 % 0 m²/s² 0 0 -0.52 3
21:00 766 J/kg -2.7 K 0 % 0 % 0 % 0 m²/s² 0 0 -1.26 3
22:00 755 J/kg -2.7 K 0 % 0 % 0 % 0 m²/s² 0 0 -1.53 3
23:00 570 J/kg -2.6 K 0 % 0 % 0 % 0 m²/s² 0 0 -1.88 80
 06:14     21:38    Daglengte: 15:24 Morgen
00:00 599 J/kg -2.4 K 0 % 0 % 0 % 0 m²/s² 0 0 -1.77 80
01:00 478 J/kg -2.5 K 0 % 0 % 0 % 0 m²/s² 0 0 -1.45 80
02:00 543 J/kg -3.3 K 0 % 0 % 0 % 0 m²/s² 0 0 -2.34 3
03:00 566 J/kg -3.7 K 0 % 0 % 0 % 0 m²/s² 0 0 -3.43 3
04:00 189 J/kg -2.3 K 0 % 0 % 0 % 0 m²/s² 0 0 -1.82 80
05:00 0 J/kg -2.6 K 0 % 0 % 0 % 0 m²/s² 0 0 -1.97 80
06:00 0 J/kg -0.8 K 0 % 0 % 0 % 0 m²/s² 0 0 -0.23 80
07:00 0 J/kg -1.4 K 0 % 0 % 0 % 0 m²/s² 0 0 -1.4 3
08:00 0 J/kg -0.4 K 0 % 0 % 0 % 0 m²/s² 0 0 -0.37 3
09:00 0 J/kg -0.5 K 0 % 0 % 0 % 0 m²/s² 0 0 -0.47 3
10:00 1 J/kg -0.5 K 0 % 0 % 0 % 0 m²/s² 0 0 -0.47 3
11:00 1 J/kg -0.2 K 0 % 0 % 0 % 0 m²/s² 0 0 0.07 3
12:00 2 J/kg -0.3 K 0 % 0 % 0 % 0 m²/s² 0 0 -0.09 3
13:00 0 J/kg -0.4 K 0 % 0 % 0 % 0 m²/s² 0 0 -0.04 3
14:00 43 J/kg -0.6 K 0 % 0 % 0 % 0 m²/s² 0 0 -0.3 3
15:00 91 J/kg -1.0 K 0 % 0 % 0 % 0 m²/s² 0 0 -0.61 3
16:00 112 J/kg -1.3 K 0 % 0 % 0 % 0 m²/s² 0 0 -0.4 3
17:00 79 J/kg -1.1 K 0 % 0 % 0 % 0 m²/s² 0 0 -0.35 3
18:00 22 J/kg -0.8 K 0 % 0 % 0 % 0 m²/s² 0 0 -0.8 3
19:00 0 J/kg -0.5 K 0 % 0 % 0 % 0 m²/s² 0 0 0.22 3
20:00 3 J/kg -0.4 K 0 % 0 % 0 % 0 m²/s² 0 0 0.71 3
21:00 130 J/kg -1.0 K 0 % 0 % 0 % 0 m²/s² 0 0 -0.1 3
22:00 316 J/kg -1.8 K 0 % 0 % 0 % 0 m²/s² 0 0 -1.5 61
23:00 293 J/kg -1.6 K 0 % 0 % 0 % 0 m²/s² 0 0 -1.39 2
 06:14     21:39    Daglengte: 15:25 Vrijdag 21 Jun
00:00 329 J/kg -1.9 K 0 % 0 % 0 % 0 m²/s² 0 0 -1.39 2
01:00 306 J/kg -1.9 K 0 % 0 % 0 % 0 m²/s² 0 0 -0.76 2
02:00 224 J/kg -1.7 K 0 % 0 % 0 % 0 m²/s² 0 0 -0.32 3
03:00 122 J/kg -1.5 K 0 % 0 % 0 % 0 m²/s² 0 0 -0.09 3
04:00 7 J/kg -1.6 K 0 % 0 % 0 % 0 m²/s² 0 0 -0.34 3
05:00 0 J/kg -1.6 K 0 % 0 % 0 % 0 m²/s² 0 0 -0.28 3
06:00 0 J/kg -2.0 K 0 % 0 % 0 % 0 m²/s² 0 0 -0.95 3
07:00 0 J/kg -1.9 K 0 % 0 % 0 % 0 m²/s² 0 0 -1.6 3
08:00 0 J/kg -1.7 K 0 % 0 % 0 % 0 m²/s² 0 0 -1.7 61
09:00 1 J/kg 0.1 K 0 % 0 % 0 % 0 m²/s² 0 0 0.13 80
10:00 0 J/kg 0.4 K 0 % 0 % 0 % 0 m²/s² 0 0 0.43 80
11:00 2 J/kg 0.4 K 0 % 0 % 0 % 0 m²/s² 0 0 0.4 80
12:00 2 J/kg 0.0 K 0 % 0 % 0 % 0 m²/s² 0 0 0 80
13:00 3 J/kg -0.1 K 0 % 0 % 0 % 0 m²/s² 0 0 0.11 3
14:00 6 J/kg 0.2 K 0 % 0 % 0 % 0 m²/s² 0 0 0.56 61
15:00 2 J/kg 0.4 K 0 % 0 % 0 % 0 m²/s² 0 0 0.61 3
16:00 16 J/kg 0.4 K 0 % 0 % 0 % 0 m²/s² 0 0 1.21 3
17:00 31 J/kg -0.8 K 0 % 0 % 0 % 0 m²/s² 0 0 -0.32 3
18:00 204 J/kg -1.7 K 0 % 0 % 0 % 0 m²/s² 0 0 -0.35 3
19:00 379 J/kg -2.1 K 0 % 0 % 0 % 0 m²/s² 0 0 -0.57 3
20:00 448 J/kg -2.0 K 0 % 0 % 0 % 0 m²/s² 0 0 -0.41 3
21:00 538 J/kg -2.2 K 0 % 0 % 0 % 0 m²/s² 0 0 -0.79 3
22:00 418 J/kg -1.9 K 0 % 0 % 0 % 0 m²/s² 0 0 -0.01 3
23:00 220 J/kg -1.6 K 0 % 0 % 0 % 0 m²/s² 0 0 0.83 3
 06:14     21:39    Daglengte: 15:25 Zaterdag 22 Jun
00:00 86 J/kg -0.8 K 0 % 0 % 0 % 0 m²/s² 0 0 1.99 2
01:00 14 J/kg 0.0 K 0 % 0 % 0 % 0 m²/s² 0 0 2.88 2
02:00 7 J/kg 0.9 K 0 % 0 % 0 % 0 m²/s² 0 0 3.6 1
03:00 1 J/kg 2.7 K 0 % 0 % 0 % 0 m²/s² 0 0 5.67 1
04:00 3 J/kg 4.4 K 0 % 0 % 0 % 0 m²/s² 0 0 8.06 2
05:00 2 J/kg 5.9 K 0 % 0 % 0 % 0 m²/s² 0 0 10.19 2
06:00 0 J/kg 6.7 K 0 % 0 % 0 % 0 m²/s² 0 0 11.71 1
07:00 1 J/kg 7.4 K 0 % 0 % 0 % 0 m²/s² 0 0 13.01 2
08:00 1 J/kg 8.1 K 0 % 0 % 0 % 0 m²/s² 0 0 14.22 1
09:00 2 J/kg 8.3 K 0 % 0 % 0 % 0 m²/s² 0 0 14.78 1
10:00 2 J/kg 8.3 K 0 % 0 % 0 % 0 m²/s² 0 0 15.23 1
11:00 2 J/kg 7.2 K 0 % 0 % 0 % 0 m²/s² 0 0 14.37 1
12:00 0 J/kg 6.6 K 0 % 0 % 0 % 0 m²/s² 0 0 13.77 0
13:00 0 J/kg 6.6 K 0 % 0 % 0 % 0 m²/s² 0 0 13.8 1
14:00 0 J/kg 6.8 K 0 % 0 % 0 % 0 m²/s² 0 0 14.24 1
15:00 0 J/kg 6.5 K 0 % 0 % 0 % 0 m²/s² 0 0 14.48 0
16:00 0 J/kg 6.2 K 0 % 0 % 0 % 0 m²/s² 0 0 15.17 1
17:00 0 J/kg 5.7 K 0 % 0 % 0 % 0 m²/s² 0 0 15.06 3
18:00 0 J/kg 5.4 K 0 % 0 % 0 % 0 m²/s² 0 0 14.76 3
19:00 0 J/kg 5.4 K 0 % 0 % 0 % 0 m²/s² 0 0 14.79 3
Temp Baro Wind Neerslag
  EWN Forecast EWN WRFDA DWD ICON FMI HIRLAM MET Norway GFS
 06:14     21:38    Daglengte: 15:24 Vandaag
20:00 26.7° 1011.8 hPa 4.2 m/s 0.0 mm 26.9° 1010.8 hPa 3.1 m/s 0.0 mm 26.1° 1011.8 hPa 3.8 m/s -1.9 mm 25.2° 1012.0 hPa 4.3 m/s 0.0 mm 26.9° 1011.6 hPa 4.3 m/s 0.0 mm 25.4° 1012.6 hPa 3.2 m/s
23:00 21.7° 1014.3 hPa 3.6 m/s 0.0 mm 22.1° 1012.9 hPa 4.8 m/s 0.5 mm 20.6° 1014.7 hPa 2.8 m/s 0.4 mm 22.0° 1013.7 hPa 3.2 m/s 0.0 mm 21.8° 1014.4 hPa 3.6 m/s 0.0 mm 19.2° 1015.2 hPa 2.3 m/s
 06:14     21:38    Daglengte: 15:24 Morgen
02:00 19.0° 1015.2 hPa 3.2 m/s 3.8 mm 19.5° 1014.3 hPa 2.7 m/s 1.9 mm 18.6° 1016.0 hPa 2.1 m/s 2.2 mm 19.3° 1014.7 hPa 3.0 m/s 0.0 mm 18.6° 1015.2 hPa 3.5 m/s 4.9 mm 18.3° 1016.1 hPa 1.5 m/s
05:00 17.3° 1015.4 hPa 3.6 m/s 8.9 mm 17.8° 1013.6 hPa 4.0 m/s 12.2 mm 16.9° 1016.5 hPa 2.7 m/s 2.7 mm 17.9° 1015.4 hPa 4.5 m/s 0.0 mm 17.1° 1015.4 hPa 3.2 m/s 9.8 mm 16.5° 1015.4 hPa 3.9 m/s
08:00 16.7° 1016.4 hPa 2.9 m/s 5.2 mm 16.6° 1015.6 hPa 3.1 m/s 24.9 mm 16.6° 1017.1 hPa 2.1 m/s 1.7 mm 16.1° 1016.3 hPa 3.0 m/s 0.0 mm 17.0° 1016.3 hPa 2.9 m/s 1.3 mm 16.9° 1016.4 hPa 2.2 m/s
11:00 17.7° 1016.6 hPa 2.3 m/s 0.0 mm 17.6° 1015.6 hPa 1.9 m/s 39.4 mm 17.2° 1017.6 hPa 2.3 m/s 0.0 mm 17.2° 1016.5 hPa 2.3 m/s 0.0 mm 19.4° 1016.5 hPa 2.2 m/s 0.0 mm 20.1° 1016.1 hPa 2.6 m/s
14:00 20.5° 1016.2 hPa 2.2 m/s 0.0 mm 22.0° 1015.4 hPa 2.7 m/s 44.3 mm 19.8° 1017.4 hPa 2.1 m/s 0.0 mm 20.1° 1015.7 hPa 3.6 m/s 0.0 mm 21.9° 1016.0 hPa 2.1 m/s 0.0 mm 22.2° 1015.6 hPa 2.6 m/s
17:00 21.7° 1015.0 hPa 2.7 m/s 0.0 mm 23.4° 1013.6 hPa 3.9 m/s 44.4 mm 20.5° 1016.6 hPa 2.6 m/s 0.0 mm 20.6° 1014.9 hPa 3.8 m/s 0.0 mm 22.8° 1014.7 hPa 2.6 m/s 0.0 mm 23.6° 1014.0 hPa 3.3 m/s
20:00 20.4° 1015.2 hPa 2.8 m/s 7.2 mm 21.6° 1013.9 hPa 3.8 m/s 45.7 mm 19.2° 1017.4 hPa 2.9 m/s 0.1 mm 20.7° 1014.9 hPa 3.5 m/s 0.0 mm 20.4° 1015.0 hPa 2.6 m/s 1.0 mm 21.4° 1014.6 hPa 2.9 m/s
23:00 18.7° 1016.5 hPa 2.2 m/s 5.7 mm 20.5° 1015.1 hPa 2.9 m/s 47.1 mm 17.3° 1017.8 hPa 1.1 m/s 0.2 mm 18.7° 1016.1 hPa 3.1 m/s 0.0 mm 18.6° 1016.4 hPa 2.1 m/s 0.9 mm 18.3° 1016.5 hPa 1.3 m/s
 06:14     21:39    Daglengte: 15:25 Vrijdag 21 Jun
02:00 17.0° 1016.6 hPa 1.7 m/s 0.0 mm 18.4° 1015.2 hPa 2.0 m/s 48.2 mm 16.0° 1017.8 hPa 0.7 m/s 0.0 mm 17.5° 1015.8 hPa 2.0 m/s 0.0 mm 16.4° 1016.6 hPa 1.6 m/s 0.0 mm 16.8° 1016.9 hPa 1.8 m/s
05:00 16.1° 1015.8 hPa 2.1 m/s 0.0 mm 16.2° 1013.7 hPa 2.7 m/s 48.4 mm 15.4° 1016.8 hPa 0.4 m/s 0.0 mm 16.8° 1014.7 hPa 2.4 m/s 0.0 mm 15.5° 1016.0 hPa 2.0 m/s 0.0 mm 15.8° 1016.3 hPa 2.4 m/s
08:00 16.0° 1016.4 hPa 2.5 m/s 3.6 mm 14.6° 1014.6 hPa 5.1 m/s 48.8 mm 15.9° 1017.4 hPa 0.9 m/s 0.7 mm 16.0° 1015.0 hPa 3.5 m/s 0.0 mm 17.1° 1016.6 hPa 1.1 m/s 0.0 mm 16.3° 1016.6 hPa 2.1 m/s
11:00 16.5° 1017.1 hPa 3.0 m/s 14.0 mm 15.0° 1016.3 hPa 4.2 m/s 97.6 mm 16.8° 1018.2 hPa 3.2 m/s 1.1 mm 15.2° 1016.0 hPa 2.8 m/s 0.0 mm 20.4° 1017.1 hPa 1.8 m/s 0.0 mm 16.5° 1017.0 hPa 3.5 m/s
14:00 18.7° 1017.0 hPa 3.8 m/s 23.4 mm 17.6° 1016.2 hPa 4.7 m/s 126.0 mm 15.9° 1019.2 hPa 3.1 m/s 0.4 mm 19.8° 1016.2 hPa 4.8 m/s 0.0 mm 22.2° 1016.7 hPa 2.8 m/s 0.6 mm 19.8° 1016.9 hPa 3.9 m/s
17:00 18.5° 1016.8 hPa 4.1 m/s 26.5 mm 18.5° 1015.7 hPa 5.2 m/s 127.7 mm 17.6° 1019.1 hPa 3.2 m/s 0.0 mm 21.2° 1016.3 hPa 4.0 m/s 1.6 mm 18.0° 1016.7 hPa 5.6 m/s
20:00 18.9° 1017.1 hPa 4.2 m/s 8.8 mm 20.1° 1015.4 hPa 5.2 m/s 128.6 mm 16.4° 1020.1 hPa 3.7 m/s 0.0 mm 20.0° 1016.6 hPa 4.1 m/s 0.4 mm 18.0° 1016.9 hPa 4.2 m/s
23:00 16.8° 1018.9 hPa 4.2 m/s 0.0 mm 17.2° 1017.4 hPa 5.0 m/s 129.8 mm 14.5° 1021.2 hPa 3.3 m/s 0.0 mm 18.2° 1018.6 hPa 4.2 m/s 0.0 mm 16.2° 1018.7 hPa 3.3 m/s
 06:14     21:39    Daglengte: 15:25 Zaterdag 22 Jun
02:00 15.6° 1019.0 hPa 4.0 m/s 0.0 mm 15.7° 1017.7 hPa 3.7 m/s 130.8 mm 13.3° 1020.9 hPa 2.4 m/s 0.0 mm 16.9° 1018.8 hPa 4.0 m/s 0.0 mm 13.7° 1018.8 hPa 1.7 m/s
05:00 14.4° 1018.4 hPa 3.1 m/s 0.0 mm 14.0° 1017.0 hPa 2.5 m/s 130.9 mm 12.5° 1020.1 hPa 1.2 m/s 0.0 mm 15.7° 1018.3 hPa 3.2 m/s 0.0 mm 14.0° 1017.9 hPa 1.6 m/s
08:00 14.2° 1019.0 hPa 2.4 m/s 0.0 mm 13.9° 1017.2 hPa 1.8 m/s 131.0 mm 13.9° 1020.3 hPa 0.9 m/s 0.0 mm 15.4° 1019.0 hPa 2.7 m/s 0.0 mm 14.5° 1018.2 hPa 1.9 m/s
11:00 18.5° 1018.3 hPa 1.9 m/s 0.0 mm 17.4° 1016.5 hPa 2.1 m/s 131.0 mm 18.7° 1019.4 hPa 0.4 m/s 0.0 mm 19.2° 1018.2 hPa 2.4 m/s 19.0° 1017.1 hPa 0.8 m/s
14:00 22.7° 1017.4 hPa 2.1 m/s 0.0 mm 22.4° 1015.4 hPa 2.8 m/s 131.0 mm 23.2° 1018.0 hPa 1.8 m/s 0.0 mm 23.1° 1017.5 hPa 2.1 m/s 22.2° 1015.9 hPa 2.9 m/s
17:00 24.4° 1015.8 hPa 1.6 m/s 0.0 mm 24.7° 1013.4 hPa 2.6 m/s 131.0 mm 25.2° 1015.7 hPa 1.6 m/s 0.0 mm 24.0° 1016.4 hPa 1.3 m/s 24.0° 1013.9 hPa 1.9 m/s
20:00 24.7° 1015.1 hPa 0.7 m/s 0.0 mm 24.9° 1013.3 hPa 2.6 m/s 131.0 mm 24.4° 1015.7 hPa 0.3 m/s 0.0 mm 24.8° 1015.2 hPa 0.5 m/s 23.8° 1014.0 hPa 1.3 m/s
23:00 19.3° 1015.2 hPa 1.8 m/s 16.9 mm 19.4° 1015.1 hPa 1.8 m/s 18.4° 1015.7 hPa 1.6 m/s 16.9 mm
 06:15     21:39    Daglengte: 15:24 Zondag 23 Jun
02:00 16.7° 1015.1 hPa 2.4 m/s 16.9 mm 16.7° 1015.1 hPa 2.4 m/s 16.8° 1015.2 hPa 1.9 m/s 16.9 mm
05:00 17.3° 1014.5 hPa 2.4 m/s 16.9 mm 17.4° 1014.5 hPa 2.3 m/s 16.2° 1014.6 hPa 2.8 m/s 16.9 mm
08:00 18.2° 1014.0 hPa 2.4 m/s 16.9 mm 18.2° 1013.9 hPa 2.3 m/s 18.3° 1014.7 hPa 3.3 m/s 16.9 mm
11:00 24.6° 1013.6 hPa 3.4 m/s 16.9 mm 24.5° 1013.5 hPa 3.2 m/s 25.2° 1014.3 hPa 4.8 m/s 16.9 mm
14:00 30.8° 1013.1 hPa 4.3 m/s 16.9 mm 30.8° 1013.1 hPa 4.2 m/s 30.9° 1013.6 hPa 4.9 m/s 16.9 mm
17:00 30.1° 1012.4 hPa 4.5 m/s 16.9 mm 29.9° 1012.5 hPa 4.3 m/s 32.9° 1012.4 hPa 5.6 m/s 16.9 mm
20:00 28.8° 1011.9 hPa 4.6 m/s 16.9 mm 28.9° 1011.8 hPa 4.5 m/s 27.2° 1012.6 hPa 6.2 m/s 16.9 mm
23:00 24.9° 1012.6 hPa 4.1 m/s 16.9 mm 25.0° 1012.4 hPa 4.0 m/s 22.8° 1014.4 hPa 6.2 m/s 16.9 mm
 06:15     21:39    Daglengte: 15:24 Maandag 24 Jun
02:00 21.2° 1013.2 hPa 3.5 m/s 16.9 mm 21.2° 1013.0 hPa 3.4 m/s 20.8° 1015.1 hPa 5.0 m/s 16.9 mm
05:00 21.0° 1013.5 hPa 4.5 m/s 16.9 mm 21.3° 1013.4 hPa 4.5 m/s 18.3° 1015.4 hPa 4.5 m/s 16.9 mm
08:00 21.2° 1013.9 hPa 5.4 m/s 16.9 mm 21.4° 1013.7 hPa 5.5 m/s 18.5° 1016.0 hPa 3.9 m/s 16.9 mm
11:00 26.1° 1014.2 hPa 5.6 m/s 16.9 mm 26.2° 1014.0 hPa 5.7 m/s 24.7° 1015.9 hPa 5.0 m/s 16.9 mm
14:00 31.0° 1014.4 hPa 5.9 m/s 16.9 mm 31.1° 1014.3 hPa 5.8 m/s 29.4° 1015.4 hPa 6.5 m/s 16.9 mm
17:00 30.1° 1014.3 hPa 5.3 m/s 16.9 mm 30.0° 1014.2 hPa 5.2 m/s 30.7° 1014.5 hPa 6.1 m/s 16.9 mm
20:00 28.7° 1014.2 hPa 4.6 m/s 16.9 mm 28.9° 1014.2 hPa 4.6 m/s 27.0° 1014.6 hPa 4.5 m/s 16.9 mm
23:00 24.0° 1014.9 hPa 3.6 m/s 16.9 mm 24.2° 1014.8 hPa 3.5 m/s 21.6° 1016.4 hPa 4.7 m/s 16.9 mm
 06:15     21:39    Daglengte: 15:24 Dinsdag 25 Jun
02:00 19.6° 1015.5 hPa 2.6 m/s 16.9 mm 19.6° 1015.4 hPa 2.4 m/s 19.3° 1016.9 hPa 4.9 m/s 16.9 mm
05:00 20.4° 1015.5 hPa 4.5 m/s 16.9 mm 20.7° 1015.4 hPa 4.6 m/s 17.1° 1016.8 hPa 3.9 m/s 16.9 mm
08:00 21.5° 1015.6 hPa 6.4 m/s 16.9 mm 21.8° 1015.4 hPa 6.7 m/s 18.4° 1017.8 hPa 3.3 m/s 16.9 mm
11:00 27.0° 1015.6 hPa 5.9 m/s 16.9 mm 27.2° 1015.4 hPa 6.2 m/s 24.2° 1018.0 hPa 3.3 m/s 16.9 mm
14:00 32.3° 1015.6 hPa 5.5 m/s 16.9 mm 32.6° 1015.4 hPa 5.6 m/s 29.5° 1017.4 hPa 4.1 m/s 16.9 mm
17:00 31.6° 1015.0 hPa 4.6 m/s 16.9 mm 31.6° 1014.9 hPa 4.7 m/s 31.3° 1016.6 hPa 3.9 m/s 16.9 mm
20:00 30.4° 1014.6 hPa 3.6 m/s 16.9 mm 30.6° 1014.4 hPa 3.8 m/s 27.7° 1016.9 hPa 1.7 m/s 16.9 mm
23:00 26.6° 1015.0 hPa 4.6 m/s 16.9 mm 27.0° 1014.7 hPa 4.9 m/s 22.5° 1018.8 hPa 1.5 m/s 16.9 mm
 06:16     21:39    Daglengte: 15:23 Woensdag 26 Jun
02:00 23.0° 1015.3 hPa 5.8 m/s 16.9 mm 23.3° 1015.0 hPa 6.0 m/s 20.1° 1018.2 hPa 3.0 m/s 16.9 mm
05:00 23.0° 1015.1 hPa 6.2 m/s 16.9 mm 23.4° 1014.9 hPa 6.5 m/s 18.8° 1017.5 hPa 3.8 m/s 16.9 mm
08:00 23.1° 1015.1 hPa 6.6 m/s 16.9 mm 23.4° 1014.8 hPa 6.9 m/s 20.0° 1017.9 hPa 2.8 m/s 16.9 mm
11:00 28.7° 1015.2 hPa 6.9 m/s 16.9 mm 29.0° 1015.0 hPa 7.2 m/s 25.6° 1017.7 hPa 3.2 m/s 16.9 mm
14:00 34.3° 1015.2 hPa 7.2 m/s 16.9 mm 34.6° 1015.1 hPa 7.5 m/s 30.6° 1016.8 hPa 3.7 m/s 16.9 mm
17:00 32.9° 1014.2 hPa 7.6 m/s 16.9 mm 32.9° 1014.2 hPa 7.9 m/s 33.4° 1015.3 hPa 3.7 m/s 16.9 mm
20:00 31.0° 1013.4 hPa 7.7 m/s 16.9 mm 31.2° 1013.2 hPa 8.3 m/s 29.2° 1015.8 hPa 0.6 m/s 16.9 mm
 06:16     21:39    Daglengte: 15:23 Donderdag 27 Jun
02:00 23.7° 1015.6 hPa 5.4 m/s 16.9 mm 24.1° 1015.3 hPa 5.4 m/s 19.8° 1019.3 hPa 5.6 m/s 16.9 mm
08:00 23.6° 1016.2 hPa 4.3 m/s 16.9 mm 24.0° 1015.9 hPa 4.5 m/s 19.7° 1019.6 hPa 2.7 m/s 16.9 mm
14:00 34.6° 1015.9 hPa 4.5 m/s 16.9 mm 35.6° 1015.7 hPa 4.7 m/s 23.6° 1018.4 hPa 2.8 m/s 16.9 mm
20:00 32.3° 1014.3 hPa 4.7 m/s 17.0 mm 33.0° 1014.1 hPa 4.9 m/s 24.6° 1017.1 hPa 3.1 m/s 17.0 mm
 06:16     21:39    Daglengte: 15:23 Vrijdag 28 Jun
02:00 23.0° 1016.2 hPa 2.9 m/s 17.0 mm 23.1° 1016.0 hPa 3.0 m/s 21.8° 1018.9 hPa 2.3 m/s 17.0 mm
08:00 20.5° 1016.3 hPa 1.7 m/s 17.0 mm 20.5° 1016.2 hPa 1.6 m/s 20.5° 1017.9 hPa 2.8 m/s 17.0 mm
14:00 34.4° 1013.4 hPa 4.2 m/s 17.0 mm 35.2° 1013.1 hPa 4.2 m/s 25.9° 1016.4 hPa 3.6 m/s 17.0 mm
20:00 32.9° 1011.1 hPa 4.8 m/s 17.0 mm 33.6° 1010.7 hPa 4.9 m/s 25.0° 1015.0 hPa 3.4 m/s 17.0 mm
 06:17     21:39    Daglengte: 15:22 Zaterdag 29 Jun
02:00 23.5° 1011.5 hPa 5.5 m/s 17.0 mm 23.8° 1011.1 hPa 5.8 m/s 19.7° 1016.4 hPa 1.6 m/s 17.0 mm
08:00 20.1° 1014.9 hPa 1.0 m/s 17.0 mm 20.1° 1014.9 hPa 1.0 m/s 17.0 mm
14:00 32.0° 1013.0 hPa 2.0 m/s 0.0 mm
20:00 31.5° 1012.1 hPa 2.2 m/s 0.0 mm
 06:17     21:39    Daglengte: 15:22 Zondag 30 Jun
02:00 21.1° 1014.5 hPa 1.0 m/s 0.2 mm
08:00 21.0° 1015.2 hPa 1.3 m/s 0.2 mm
14:00 30.2° 1014.2 hPa 3.0 m/s 0.1 mm
20:00 28.7° 1014.1 hPa 4.5 m/s 0.4 mm
 06:18     21:39    Daglengte: 15:21 Maandag 01 Jul
02:00 19.1° 1016.9 hPa 2.9 m/s 1.7 mm
08:00 18.4° 1017.2 hPa 2.1 m/s 0.6 mm
14:00 27.4° 1015.6 hPa 3.4 m/s 0.1 mm
20:00 26.8° 1015.1 hPa 4.0 m/s 0.0 mm
 06:18     21:39    Daglengte: 15:21 Dinsdag 02 Jul
02:00 18.3° 1017.0 hPa 2.3 m/s 0.2 mm
08:00 18.3° 1016.6 hPa 1.5 m/s 0.3 mm
14:00 27.8° 1014.7 hPa 2.8 m/s 0.1 mm
20:00 26.5° 1013.9 hPa 3.3 m/s 0.4 mm
 06:19     21:39    Daglengte: 15:20 Woensdag 03 Jul
02:00 17.4° 1015.9 hPa 2.3 m/s 0.6 mm
08:00 17.9° 1016.0 hPa 1.6 m/s 0.7 mm
14:00 26.0° 1014.9 hPa 3.0 m/s 0.3 mm
20:00 25.6° 1014.6 hPa 3.0 m/s 0.2 mm
 06:20     21:38    Daglengte: 15:18 Donderdag 04 Jul
02:00 17.4° 1016.7 hPa 2.1 m/s 0.7 mm
08:00 17.7° 1016.9 hPa 0.9 m/s 0.4 mm
14:00 26.7° 1015.9 hPa 2.2 m/s 0.4 mm
FMI Hirlam - 7.5 km EWN WRFDA - 12 km DWD ICON - 7 km GFS - 25 km Basiskaart






























































Updatetijd (Europe/Amsterdam) Resolutie Lengte Stap
FMI Hirlam 19:00, 01:00, 07:00, 13:00 7.5 km 49h 1h
EWN WRFDA 16:00, 22:00, 04:00, 10:00 12 km 73h 1h
DWD ICON 17:45, 23:45, 05:45, 11:45 7 km 75h 1h
GFS 14:30, 20:30, 02:30, 08:30 25 km 237h 3h
30+ mm
25-30 mm
20-25 mm
15-20 mm
10-15 mm
6-10 mm
4-6 mm
2-4 mm
1-2 mm
0.5-1 mm
0.2-0.5 mm
0.1-0.2 mm
30+ mm
25-30 mm
20-25 mm
15-20 mm
10-15 mm
6-10 mm
4-6 mm
2-4 mm
1-2 mm
0.5-1 mm
0.2-0.5 mm
0.1-0.2 mm
Sneeuwval
Natte sneeuw
Hagel
Vorst
30+ mm
25-30 mm
20-25 mm
15-20 mm
10-15 mm
6-10 mm
4-6 mm
2-4 mm
1-2 mm
0.5-1 mm
0.2-0.5 mm
0.1-0.2 mm
Sneeuwval
Natte sneeuw
Hagel
Vorst
Onweer
50 mm
40 mm
30 mm
26 mm
22 mm
18 mm
14 mm
10 mm
9 mm
8 mm
7 mm
6 mm
5 mm
4.5 mm
4 mm
3.5 mm
3 mm
2.5 mm
2 mm
1.5 mm
1 mm
0.8 mm
0.6 mm
0.4 mm
0.2 mm
0.05 mm
35°
30°
25°
20°
15°
10°
-5°
-10°
-15°
-20°
-25°
-30°
-35°